Tracking 25734 objects as of 28-May-2022
HD Live streaming from Space Station
objects crossing your sky now

COSMOS 1275 DEB

Track COSMOS 1275 DEB now!
10-day predictions


NORAD ID: 12705
Int'l Code: 1981-053AZ
Perigee: 884.1 km
Apogee: 927.8 km
Inclination: 82.9 °
Period: 103.0 minutes
Semi major axis: 7276 km
RCS: 0.2491 m2 (medium)
Launch date: June 4, 1981
Source: Commonwealth of Independent States (former USSR) (CIS)
Launch site: PLESETSK MISSILE AND SPACE COMPLEX (PKMTR)

Note: This is SATELLITE DEBRIS
aabbcc
Your satellite tracking list
Your tracking list is empty




NASA's NSSDC Master Catalog

Two Line Element Set (TLE):
1 12705U 81053AZ  22147.88819501  .00000527  00000-0  35564-3 0  9998
2 12705  82.8900 301.9553 0030013 196.1292 288.3704 13.98554669 66782
Source of the keplerian elements: AFSPC